Location: Majestic Skies Ranch
(34.0000°N, 105.9300°W)
Time: 08:16:19
(UTC-06:00)

ISS - Visible Passes

Search period start: 31 August 2016 00:00
Search period end: 10 September 2016 00:00
Orbit: 402 x 406 km, 51.6° (Epoch: 30 August)

Date Brightness Start Highest point End Pass type
(mag) Time Alt. Az. Time Alt. Az. Time Alt. Az.
01 Sep -1.1 06:05:08 10° S 06:07:47 23° SE 06:10:26 10° ENE visible
02 Sep -0.3 05:14:40 10° SE 05:15:32 11° SE 05:16:24 10° ESE visible
03 Sep -3.1 05:55:57 10° SW 05:59:11 69° SE 06:02:27 10° NE visible
04 Sep -1.8 05:05:59 25° SSE 05:06:50 29° SE 05:09:44 10° ENE visible
05 Sep -0.1 04:16:03 11° E 04:16:03 11° E 04:16:21 10° E visible
05 Sep -2.7 05:48:43 18° WSW 05:50:44 40° NW 05:53:51 10° NNE visible
06 Sep -3.0 04:58:41 65° NE 04:58:41 65° NE 05:01:33 10° NE visible
07 Sep 0.1 04:08:34 12° ENE 04:08:34 12° ENE 04:08:56 10° ENE visible
07 Sep -1.4 05:41:13 15° WNW 05:42:25 18° NNW 05:44:49 10° NNE visible
08 Sep -1.4 04:51:01 24° N 04:51:01 24° N 04:52:49 10° NNE visible
